Dewpoint
68 68 67 70 69 67 66 66 66 68 68 70 70 70 70 70 70 71 70 70 70 71 70 69 69 69 69 68 67 67 66 66 65 65 66 66 67 67 67 68 67 67 68 68 69 69 69 70 69 69 69 70 70 69 69 69 69 70 69 69 69 69 69 69 69 69 69 69 69 68 67 67 67 68 69 69 69 68 67 67 67 66 65 67 68
68 68 67 67 69 67 67 66 66 66 70 71 70 71 71 70 70 70 70 70 70 70 69 69 68 68 68 68 67 66 66 66 66 65 65 65 66 66 66 67 67 67 67 67 67 68 69 70 69 69 69 69 69 69 69 68 69 69 69 69 69 69 69 69 68 68 68 68 68 68 67 68 68 68 69 69 69 68 67 67 67 65 65 67 67
69 69 67 67 70 69 68 67 67 66 70 70 70 70 71 70 70 71 70 70 70 70 69 69 68 68 68 67 67 65 65 65 65 65 65 65 65 65 65 66 65 66 66 66 67 67 66 67 68 68 68 68 69 69 69 69 68 68 68 69 68 68 69 68 68 67 67 67 67 67 67 67 67 68 68 69 68 68 67 67 66 66 64 66 66
69 69 67 68 69 69 68 67 67 67 68 70 70 70 70 71 70 70 70 69 70 69 69 69 68 68 67 67 66 65 65 65 64 64 65 64 64 65 65 65 65 65 65 65 65 66 66 66 67 67 67 67 68 69 69 67 67 67 68 68 69 68 68 68 67 67 67 67 67 66 66 65 66 67 68 67 67 66 66 66 66 65 65 65 65
69 68 67 66 66 68 68 68 67 67 68 70 70 70 70 70 70 70 69 69 69 69 69 69 68 66 66 67 67 66 66 65 65 65 65 64 64 65 65 65 64 64 65 65 65 65 65 66 66 66 67 68 69 68 67 67 67 68 68 68 68 68 68 68 67 67 66 66 66 65 64 64 64 66 67 67 66 65 66 65 65 64 65 65 65
68 67 66 66 66 67 69 68 66 66 69 70 70 70 70 70 70 70 70 69 69 68 68 68 68 66 64 66 67 66 66 65 64 65 66 66 66 65 65 65 65 65 65 65 65 65 65 65 66 66 67 68 68 67 67 67 67 68 68 68 68 68 67 67 67 66 66 66 65 64 63 64 64 64 65 66 66 65 64 64 64 64 63 63 64
67 66 67 66 65 67 69 68 66 66 67 69 70 70 70 70 70 69 69 69 68 67 67 67 67 66 65 66 66 65 64 64 64 65 63 62 63 64 64 65 65 66 65 65 65 65 65 65 65 65 67 68 67 67 67 68 68 67 68 68 68 67 67 67 66 66 65 64 63 63 63 64 64 64 66 65 65 64 62 63 63 63 63 63 63
67 67 66 65 65 68 68 69 68 68 71 71 70 70 70 70 70 70 69 69 68 67 66 66 66 66 66 65 64 66 66 66 65 64 63 64 65 64 64 64 65 64 64 64 64 65 64 64 64 64 65 67 67 67 67 67 68 67 67 68 67 67 66 66 66 65 64 62 62 62 63 63 63 63 64 64 63 63 62 61 61 61 60 61 62
67 67 66 65 66 68 69 68 68 69 70 70 70 70 70 70 69 69 68 67 67 66 65 65 64 65 65 63 62 63 65 65 65 65 65 65 65 63 63 66 65 65 65 65 65 65 65 65 65 64 65 67 67 67 67 67 67 67 67 67 67 66 65 65 65 64 62 62 62 62 62 62 62 62 63 63 63 62 61 61 62 61 60 62 59
66 66 65 65 66 67 68 68 68 67 69 70 70 70 70 69 69 68 67 66 65 65 65 65 64 64 64 63 64 65 65 65 66 66 65 66 66 66 65 64 64 64 64 64 65 64 65 65 65 64 65 66 67 67 67 66 66 67 67 66 66 65 65 65 64 63 62 62 62 62 63 64 61 61 62 62 61 61 63 64 65 62 62 62 60
66 66 65 65 66 68 69 69 68 68 70 70 70 70 70 69 69 68 66 65 64 64 65 64 64 63 64 64 63 63 64 64 65 67 68 67 66 65 64 65 64 65 64 64 63 63 64 65 65 65 65 66 67 67 67 66 66 66 66 66 65 65 65 64 62 61 61 61 61 61 63 64 60 60 62 62 61 60 64 64 63 59 59 58 59
66 66 65 65 68 67 68 68 68 67 68 69 69 69 68 68 67 66 65 64 64 64 64 63 63 63 63 62 62 63 64 66 68 67 67 67 67 66 64 64 64 65 65 65 65 66 66 66 65 66 66 66 66 67 66 66 65 65 66 66 65 65 64 63 61 61 60 61 61 61 60 61 60 60 62 62 61 60 59 59 59 59 60 59 58
66 66 65 65 65 67 68 68 68 68 68 67 68 69 67 67 66 64 63 63 63 63 63 63 64 63 63 62 62 64 65 68 68 67 67 68 68 67 66 65 64 65 65 65 65 65 65 65 65 66 66 66 66 66 66 65 64 64 66 65 65 64 63 62 61 60 60 60 60 60 59 59 60 61 60 60 59 59 59 59 57 57 57 57 57
66 67 65 65 65 69 67 67 68 68 68 68 68 68 67 66 66 64 63 63 64 64 64 64 64 63 63 62 62 63 64 64 67 67 66 66 66 67 66 65 65 65 64 63 64 64 65 65 66 65 66 65 66 66 65 65 64 64 65 65 65 64 62 62 61 60 60 60 60 60 59 60 59 60 60 60 60 59 59 58 57 58 56 55 55
66 67 65 65 66 66 67 67 67 67 68 68 68 68 66 66 65 64 64 65 65 65 65 65 64 64 63 63 62 63 64 64 64 66 66 66 66 66 65 65 64 63 63 64 64 64 64 65 66 66 65 65 65 65 65 64 64 64 64 64 64 63 61 60 60 59 60 60 59 59 58 59 61 58 58 56 57 57 57 56 56 56 57 57 54
67 66 65 65 65 66 66 68 66 66 67 67 67 67 67 66 65 65 67 66 65 65 65 65 65 65 66 63 63 64 64 64 64 65 65 65 64 64 65 65 64 64 64 64 64 64 64 65 65 65 65 65 65 65 65 64 64 64 64 64 63 61 60 60 59 58 58 58 58 59 58 59 60 59 57 58 58 57 57 57 57 57 55 53 52
67 66 65 65 65 65 66 65 65 64 64 65 67 67 68 68 69 67 68 68 68 67 66 66 66 66 67 68 68 66 66 66 67 67 67 68 67 67 66 66 65 64 64 64 64 64 65 65 65 65 65 65 65 64 64 64 64 64 64 64 62 61 59 59 59 58 58 58 58 58 57 57 61 56 57 57 55 56 56 56 56 54 53 53 54
66 65 65 66 65 65 65 65 65 65 65 65 65 66 67 68 68 68 68 68 68 67 67 67 67 67 67 68 68 68 68 67 67 68 67 67 67 67 66 66 65 64 64 64 64 64 64 64 65 65 65 65 65 64 64 64 64 64 65 63 61 60 59 58 57 58 58 60 57 59 58 62 61 55 55 55 56 56 56 55 55 55 54 53 53
66 65 66 66 65 65 65 64 64 64 64 64 65 65 65 66 67 67 67 68 68 68 67 65 65 66 66 66 65 65 64 65 65 67 67 66 66 66 66 66 65 65 64 64 64 64 64 65 65 65 65 65 64 64 64 64 64 64 63 61 59 58 57 57 56 56 57 56 56 56 56 61 57 57 56 55 56 57 56 56 53 52 52 53 53
65 65 65 65 65 65 64 64 64 64 64 64 64 64 63 63 66 66 67 67 67 67 66 64 63 62 63 63 62 61 61 61 61 62 64 65 64 63 65 65 64 64 64 64 64 64 64 64 65 65 65 65 64 64 65 64 64 63 62 61 58 57 56 55 55 55 55 56 56 56 59 60 55 53 53 55 56 55 54 54 54 53 52 50 51
65 65 65 65 65 65 64 64 64 64 64 64 64 64 63 62 63 63 65 65 66 65 65 61 59 59 59 59 60 60 59 59 60 60 60 61 61 62 64 66 64 64 64 64 64 64 64 64 65 65 65 64 63 62 61 63 63 63 61 59 57 56 55 54 55 56 55 56 57 56 61 62 54 55 54 53 53 51 53 53 53 53 53 53 51
64 64 64 65 65 65 64 64 64 64 64 64 64 63 62 62 62 62 63 63 63 62 61 61 62 58 58 59 59 60 60 58 59 62 59 60 60 61 63 65 65 65 65 64 64 64 64 64 64 65 64 63 60 54 55 57 59 60 59 57 56 55 55 54 55 55 55 55 56 57 61 58 55 53 54 55 54 54 53 52 52 53 53 53 52
64 64 64 65 65 65 65 64 64 64 64 64 64 63 63 62 60 61 62 61 63 62 61 61 59 59 58 58 58 58 59 59 59 59 59 59 60 60 62 63 64 64 65 65 64 64 64 64 64 64 64 61 53 54 54 54 55 56 56 56 54 55 55 54 54 55 55 55 55 59 60 57 54 54 53 56 54 54 53 53 53 53 53 53 52
64 64 64 65 65 65 65 64 64 64 64 64 64 63 63 62 61 61 61 61 62 62 61 61 60 60 60 59 59 58 58 58 61 61 61 58 59 60 61 62 62 62 63 63 63 64 64 64 64 64 60 57 56 56 57 56 56 56 56 55 55 55 54 54 54 55 55 56 56 59 61 57 55 54 56 56 54 56 54 54 53 54 53 52 52
64 64 64 65 65 64 65 64 64 64 64 64 64 63 63 62 62 61 61 61 61 61 61 61 61 61 61 61 60 58 59 58 58 58 58 58 57 57 58 58 57 58 59 58 58 59 58 56 56 56 54 55 57 56 56 57 57 55 55 55 56 54 54 52 54 54 55 55 55 58 60 61 56 56 56 55 56 56 55 54 54 54 53 53 53
62 63 64 65 65 64 64 65 64 64 64 64 64 63 63 63 62 62 61 61 61 61 61 61 61 61 61 61 60 58 59 59 58 57 57 58 57 57 57 57 56 57 58 58 57 58 56 53 53 55 55 55 56 56 57 57 58 56 55 54 54 53 53 52 53 55 55 55 55 58 60 61 60 58 57 55 54 54 56 55 54 54 54 54 53
62 63 64 64 65 65 64 64 64 64 64 64 63 63 63 63 63 63 62 61 61 61 61 61 61 61 61 59 60 59 59 59 58 57 57 57 58 57 57 57 58 57 57 57 57 56 56 55 54 55 53 54 54 54 55 54 55 55 53 53 53 53 53 52 53 54 55 55 55 56 59 60 61 59 58 58 56 57 56 55 54 56 56 57 54
61 62 62 63 64 65 65 64 64 64 64 64 62 62 63 63 63 62 62 62 61 61 61 62 61 61 60 60 59 60 59 58 58 58 58 57 58 58 56 57 57 56 57 57 58 56 55 55 55 53 53 53 53 52 53 53 53 52 53 53 52 52 53 52 52 52 54 55 54 55 57 59 60 62 59 59 58 58 58 56 55 57 57 55 54
61 61 62 62 63 64 64 64 64 64 64 64 62 61 62 63 62 62 62 61 62 61 61 61 61 61 61 60 59 59 58 58 57 58 57 58 58 58 57 57 57 57 56 56 56 56 55 54 55 55 52 53 52 53 52 53 52 52 52 53 52 52 53 54 54 52 52 54 55 55 56 58 60 61 61 60 60 59 59 59 59 58 58 58 57
61 61 61 62 62 63 64 64 64 64 64 64 63 61 61 62 62 62 62 61 62 60 60 61 61 61 60 60 59 59 59 58 58 57 57 58 58 57 58 57 57 57 55 56 55 56 55 53 53 53 54 53 53 54 52 53 54 53 52 53 53 53 53 53 54 53 52 53 54 55 55 56 58 61 62 61 61 61 60 60 60 61 61 60 59
60 60 61 61 61 62 64 64 64 63 64 64 63 62 62 62 62 62 61 61 62 60 60 61 60 61 62 60 59 59 58 58 58 58 58 57 58 58 57 57 57 57 57 56 55 56 55 55 55 54 53 53 54 53 52 54 54 54 53 52 54 52 53 53 53 53 53 53 53 54 55 55 57 59 61 62 61 61 61 61 61 60 59 60 61
60 60 60 61 61 62 63 64 64 64 64 64 63 63 63 63 62 62 61 61 61 61 61 60 59 61 60 60 60 59 58 58 58 58 58 57 57 57 57 56 57 56 56 55 54 55 55 55 53 53 53 53 53 53 51 52 54 54 53 54 54 54 54 53 54 54 54 54 53 54 54 55 55 57 58 61 62 61 61 61 61 61 61 61 61
59 60 60 60 61 61 62 64 64 64 64 64 63 63 63 63 63 62 62 62 62 61 61 60 60 60 60 60 60 59 58 58 57 58 57 57 56 56 56 56 57 56 55 55 53 53 53 52 53 52 52 51 51 53 51 51 52 53 52 53 53 54 54 54 54 54 54 54 54 54 53 54 54 55 55 57 60 62 62 61 61 61 61 61 61
59 60 60 60 60 61 61 63 64 64 64 64 63 63 63 63 63 63 62 62 62 61 61 61 60 60 60 60 60 59 58 58 58 56 57 57 56 56 56 56 55 55 55 54 53 53 53 51 52 52 53 52 53 53 51 53 52 50 51 52 51 53 53 53 54 55 55 55 55 54 54 54 54 54 55 55 57 58 61 62 62 61 61 61 61
59 59 60 60 60 61 61 62 62 64 63 64 63 63 63 63 63 63 63 62 62 61 61 61 61 61 61 60 60 60 59 59 58 57 56 56 56 55 55 56 55 54 55 54 54 53 52 53 51 51 51 51 51 52 52 53 53 53 53 52 53 53 53 53 54 54 55 55 55 54 54 54 54 54 54 55 53 54 57 60 62 62 62 62 62
59 59 60 60 60 60 60 61 62 63 63 63 63 63 63 64 64 63 64 62 62 62 61 61 61 60 61 61 61 60 60 60 59 58 57 56 55 55 55 55 55 54 54 54 53 53 53 53 53 53 52 52 52 52 51 52 52 53 53 53 53 53 53 53 53 54 54 55 55 55 55 55 54 54 53 55 55 54 54 57 59 61 62 62 62
60 60 60 60 60 60 60 61 61 63 63 63 63 63 63 63 64 64 64 64 63 63 62 61 61 61 60 61 61 61 61 61 60 60 59 57 56 55 54 54 54 55 55 54 54 54 54 54 54 53 53 53 52 52 51 51 52 52 53 52 53 53 53 53 53 54 54 53 54 54 54 55 54 52 54 54 54 55 54 54 56 57 58 60 62
60 60 60 60 60 60 60 61 61 62 63 63 63 63 63 63 63 64 64 64 64 64 64 63 62 61 60 60 60 61 61 61 62 62 61 61 60 58 57 56 56 57 56 56 56 55 55 55 54 54 53 53 53 52 52 52 52 52 52 52 52 53 53 53 53 52 53 53 54 54 54 54 54 54 54 54 54 54 54 54 54 54 54 56 59
60 60 60 60 60 60 60 60 61 62 62 63 62 63 63 63 63 63 63 64 64 65 64 64 63 62 61 61 60 60 60 61 61 61 61 59 59 60 60 59 58 58 58 57 57 56 55 55 54 54 54 54 55 53 53 52 52 51 51 52 52 52 52 52 52 52 52 53 53 53 53 54 54 54 54 54 54 54 54 54 54 54 54 54 57
60 60 60 60 60 60 61 61 61 62 62 62 62 62 62 62 62 61 62 63 64 63 64 64 64 64 63 61 60 60 59 60 61 61 61 60 59 59 59 58 57 58 58 58 57 57 56 56 55 55 54 54 53 53 53 52 52 52 51 52 52 52 51 51 51 51 52 52 52 53 53 53 53 53 53 54 54 54 54 54 53 54 54 54 55
60 60 60 60 60 60 60 61 61 62 62 62 62 62 62 61 62 62 62 61 62 62 63 64 64 64 64 63 62 61 59 59 60 59 60 59 60 60 59 58 57 57 57 57 58 57 57 56 56 55 54 54 54 54 52 51 52 53 53 52 52 52 51 51 51 51 51 51 52 52 52 52 52 52 53 53 53 54 54 54 54 54 54 54 54
58 59 60 60 60 60 60 61 61 62 62 62 62 62 62 62 62 62 62 59 59 60 62 63 64 64 64 64 63 62 61 60 59 59 60 60 60 60 60 60 60 59 58 57 58 55 56 55 54 53 52 53 52 51 52 52 51 52 52 53 53 53 52 52 52 51 51 51 51 51 51 51 51 51 52 52 52 52 52 53 53 53 53 54 54
59 59 60 60 59 60 60 60 61 61 62 62 62 62 61 60 61 58 61 57 57 60 61 60 62 63 63 63 63 63 62 62 62 61 61 61 61 61 61 61 60 59 59 58 57 56 56 56 55 56 56 53 53 53 54 54 54 52 52 51 51 50 51 49 49 50 51 51 51 50 50 50 50 51 51 51 51 51 51 51 51 52 52 52 53
58 58 59 59 60 59 60 60 60 61 61 61 61 61 61 59 59 59 59 60 59 58 59 58 59 59 60 61 61 62 62 62 62 62 62 62 61 61 61 60 60 59 59 58 57 58 57 56 56 56 56 55 54 54 54 54 53 53 51 50 49 48 49 49 48 51 50 50 50 50 50 50 50 50 50 49 49 50 50 50 50 50 51 51 52
57 58 59 59 60 60 60 60 60 61 61 60 60 60 59 57 58 57 57 57 57 56 57 57 56 57 58 59 61 61 61 61 62 62 60 62 62 62 62 61 61 60 59 58 58 58 58 58 57 56 55 55 55 54 53 53 53 54 54 51 50 47 48 50 51 53 53 50 50 49 49 49 49 49 48 49 49 49 49 49 49 49 50 50 50
57 58 59 59 59 60 59 59 59 60 60 60 60 60 60 60 58 59 58 56 57 54 57 57 56 55 59 59 59 61 62 62 62 62 61 60 61 61 62 61 60 59 58 59 59 59 58 57 57 57 56 56 56 56 55 53 53 53 53 55 55 52 52 52 51 49 49 51 50 50 49 49 48 47 47 48 48 48 48 49 49 49 49 49 50
56 56 55 57 57 58 58 59 60 60 60 59 59 59 59 59 59 60 59 58 57 54 52 53 56 56 58 58 60 60 61 62 62 61 61 61 61 61 61 62 62 60 58 58 58 58 58 58 57 56 57 56 56 55 55 55 53 52 52 53 52 52 51 50 49 50 48 50 51 50 50 51 50 49 48 48 48 48 48 48 48 48 48 49 49
53 47 51 53 56 57 58 58 59 59 59 59 59 59 60 58 58 58 57 57 57 56 53 54 54 54 56 57 58 59 60 60 60 59 60 61 60 61 61 60 60 60 58 59 58 58 57 56 56 57 57 56 56 55 55 55 54 53 52 51 50 51 51 51 51 50 48 45 49 51 51 51 51 51 50 50 49 49 49 48 48 48 48 48 48
42 44 47 52 53 55 56 57 58 58 59 59 59 58 59 59 58 57 56 55 56 55 51 51 54 54 55 54 57 57 57 57 57 58 58 59 58 59 59 58 58 59 57 57 58 58 58 58 57 56 56 56 55 55 55 55 54 54 53 51 50 51 52 51 49 48 48 48 48 49 49 48 50 50 50 50 50 49 49 49 49 48 48 48 48
40 41 42 45 50 52 55 56 57 57 58 58 58 58 57 57 58 56 56 54 52 51 52 53 52 52 53 53 54 55 54 55 56 57 57 57 57 57 57 57 57 58 57 58 58 57 57 57 58 57 57 56 56 56 55 55 54 55 54 53 51 50 48 47 48 48 48 49 47 48 49 49 48 48 49 50 50 50 49 49 48 48 48 48 48
41 41 42 45 48 52 53 55 55 55 55 57 57 57 56 57 57 56 56 55 53 53 53 52 50 50 51 52 53 52 51 52 52 53 55 55 55 54 55 55 56 54 56 57 57 57 56 56 56 56 56 56 56 56 55 55 55 54 54 53 53 53 52 50 51 51 49 47 47 48 49 49 49 49 50 49 49 49 49 49 49 49 49 49 48